Weather observations for the past three days for
Comox, B. C.
| Date | Time (pdt) | Wind (mph) | Vis. (mi.) | Weather | Sky Cond. | Temperature (ºF) | Relative Humidity | Wind Chill (°F) | Heat Index (°F) | Pressure | Precipitation (in) | ||||||
|---|---|---|---|---|---|---|---|---|---|---|---|---|---|---|---|---|---|
| Air | Dwpt | 6 hour | altimeter (in) | sea level (mb) | 1 hr | 3 hr | 6 hr | ||||||||||
| Max. | Min. | ||||||||||||||||
| 04 | 21:00 | SW 2 | 20.00 | A Few Clouds | FEW250 | 69.8 | 42.8 | 38% | 29.76 | 1007.8 | |||||||
| 04 | 20:00 | NE 2 | 20.00 | A Few Clouds | FEW250 | 71.6 | 53.6 | 53% | 29.75 | 1007.3 | |||||||
| 04 | 19:00 | E 6 | 20.00 | A Few Clouds | FEW250 | 73.4 | 42.8 | 33% | 29.75 | 1007.5 | |||||||
| 04 | 17:00 | E 3 | 20.00 | A Few Clouds | FEW250 | 77 | 44.6 | 32% | 78 | 29.78 | 1008.3 | ||||||
| 04 | 16:00 | NE 5 | 20.00 | A Few Clouds | FEW250 | 75.2 | 48.2 | 39% | 77 | 29.79 | 1008.7 | ||||||
| 04 | 15:00 | NE 5 | 20.00 | A Few Clouds | FEW250 | 73.4 | 50 | 44% | 29.8 | 1009.1 | |||||||
| 04 | 14:00 | E 6 | 20.00 | A Few Clouds | FEW250 | 69.8 | 46.4 | 43% | 29.82 | 1009.7 | |||||||
| 04 | 13:00 | E 8 | 20.00 | Partly Cloudy | SCT250 | 71.6 | 50 | 47% | 29.83 | 1010.0 | |||||||
| 04 | 12:00 | N 8 | 20.00 | Partly Cloudy | SCT250 | 71.6 | 44.6 | 38% | 29.84 | 1010.4 | |||||||
| 04 | 11:00 | NW 8 | 20.00 | Mostly Cloudy | BKN250 | 71.6 | 42.8 | 36% | 29.84 | 1010.5 | |||||||
| 04 | 10:00 | N 8 | 20.00 | Mostly Cloudy | BKN250 | 68 | 44.6 | 43% | 29.85 | 1010.8 | |||||||
| 04 | 09:00 | N 5 | 20.00 | A Few Clouds | FEW250 | 66.2 | 44.6 | 46% | 29.85 | 1010.8 | |||||||
| 04 | 08:00 | NW 2 | 20.00 | A Few Clouds | FEW250 | 62.6 | 44.6 | 52% | 29.85 | 1010.7 | |||||||
| 04 | 07:00 | Calm | 20.00 | A Few Clouds | FEW250 | 57.2 | 44.6 | 63% | 29.84 | 1010.5 | |||||||
| 04 | 06:00 | W 3 | 20.00 | A Few Clouds | FEW250 | 55.4 | 42.8 | 63% | 29.84 | 1010.3 | |||||||
| 04 | 05:00 | S 2 | 20.00 | A Few Clouds | FEW250 | 53.6 | 44.6 | 72% | 29.83 | 1010.1 | |||||||
| 04 | 04:00 | NW 2 | 20.00 | A Few Clouds | FEW250 | 57.2 | 42.8 | 59% | 29.82 | 1009.8 | |||||||
| 04 | 03:00 | NW 7 | 20.00 | A Few Clouds | FEW250 | 59 | 44.6 | 59% | 29.82 | 1009.9 | |||||||
| 04 | 02:00 | NW 6 | 20.00 | A Few Clouds | FEW250 | 60.8 | 44.6 | 55% | 29.82 | 1009.9 | |||||||
| 04 | 01:00 | NW 8 | 20.00 | A Few Clouds | FEW250 | 62.6 | 46.4 | 56% | 29.82 | 1009.8 | |||||||
| 04 | 00:00 | NW 7 | 20.00 | A Few Clouds | FEW250 | 64.4 | 46.4 | 52% | 29.82 | 1009.9 | |||||||
| 03 | 23:00 | NW 10 | 20.00 | A Few Clouds | FEW250 | 66.2 | 44.6 | 46% | 29.82 | 1009.8 | |||||||
| 03 | 22:00 | NW 2 | 20.00 | A Few Clouds | FEW250 | 66.2 | 44.6 | 46% | 29.83 | 1010.1 | |||||||
| 03 | 21:00 | NW 5 | 20.00 | A Few Clouds | FEW250 | 71.6 | 44.6 | 38% | 29.82 | 1009.8 | |||||||
| 03 | 20:00 | NW 6 | 20.00 | A Few Clouds | FEW250 | 78.8 | 37.4 | 23% | 78 | 29.83 | 1010.0 | ||||||
| 03 | 19:00 | NW 6 | 20.00 | A Few Clouds | FEW250 | 80.6 | 37.4 | 21% | 79 | 29.84 | 1010.4 | ||||||
| 03 | 18:00 | N 5 | 20.00 | A Few Clouds | FEW250 | 80.6 | 42.8 | 26% | 79 | 29.85 | 1011.0 | ||||||
| 03 | 17:00 | N 5 | 20.00 | A Few Clouds | FEW230 | 78.8 | 42.8 | 28% | 78 | 29.87 | 1011.6 | ||||||
| 03 | 16:00 | N 8 | 20.00 | A Few Clouds | FEW250 | 78.8 | 42.8 | 28% | 78 | 29.9 | 1012.4 | ||||||
| 03 | 15:00 | N 8 | 20.00 | A Few Clouds | FEW250 | 77 | 44.6 | 32% | 78 | 29.92 | 1013.2 | ||||||
| 03 | 14:00 | N 7 | 20.00 | A Few Clouds | FEW250 | 73.4 | 44.6 | 36% | 29.94 | 1013.8 | |||||||
| 03 | 13:00 | N 8 | 20.00 | A Few Clouds | FEW250 | 71.6 | 46.4 | 41% | 29.96 | 1014.6 | |||||||
| 03 | 12:00 | N 10 | 20.00 | A Few Clouds | FEW250 | 68 | 46.4 | 46% | 29.97 | 1015.1 | |||||||
| 03 | 11:00 | N 9 | 20.00 | A Few Clouds | FEW180 FEW250 | 64.4 | 46.4 | 52% | 29.98 | 1015.3 | |||||||
| 03 | 10:00 | N 8 | 20.00 | A Few Clouds | FEW180 FEW250 | 62.6 | 48.2 | 60% | 30 | 1015.9 | |||||||
| 03 | 09:00 | N 10 | 20.00 | A Few Clouds | FEW180 FEW250 | 59 | 46.4 | 63% | 30.01 | 1016.3 | |||||||
| 03 | 08:00 | W 5 | 20.00 | Partly Cloudy | FEW180 SCT250 | 57.2 | 44.6 | 63% | 30.01 | 1016.4 | |||||||
| 03 | 07:00 | NW 3 | 20.00 | Mostly Cloudy | FEW180 BKN250 | 53.6 | 42.8 | 67% | 30.01 | 1016.3 | |||||||
| 03 | 06:00 | SW 2 | 20.00 | Partly Cloudy | FEW160 SCT250 | 50 | 42.8 | 76% | 30.01 | 1016.2 | |||||||
| 03 | 05:00 | NW 3 | 20.00 | Partly Cloudy | SCT250 | 53.6 | 42.8 | 67% | 30.01 | 1016.4 | |||||||
| 03 | 04:00 | NW 7 | 20.00 | Mostly Cloudy | BKN250 | 55.4 | 44.6 | 67% | 30.01 | 1016.3 | |||||||
| 03 | 03:00 | NW 7 | 20.00 | Mostly Cloudy | BKN250 | 57.2 | 44.6 | 63% | 30.01 | 1016.3 | |||||||
| 03 | 02:00 | NW 13 | 20.00 | Partly Cloudy | SCT250 | 57.2 | 46.4 | 67% | 30.01 | 1016.3 | |||||||
| 03 | 01:00 | N 13 | 20.00 | A Few Clouds | FEW250 | 59 | 46.4 | 63% | 30 | 1016.1 | |||||||
| 03 | 00:00 | NW 16 | 20.00 | A Few Clouds | FEW250 | 60.8 | 46.4 | 59% | 30.01 | 1016.1 | |||||||
| 02 | 23:00 | NW 12 | 20.00 | Clear | SKC | 60.8 | 46.4 | 59% | 30 | 1015.8 | |||||||
| 02 | 22:00 | N 8 | 20.00 | A Few Clouds | FEW220 | 60.8 | 46.4 | 59% | 29.99 | 1015.7 | |||||||
| 02 | 21:00 | NW 12 G 18 | 20.00 | A Few Clouds | FEW220 | 66.2 | 44.6 | 46% | 29.98 | 1015.4 | |||||||
| 02 | 20:00 | N 12 | 20.00 | A Few Clouds | FEW220 | 69.8 | 44.6 | 40% | 29.97 | 1015.1 | |||||||
| 02 | 19:00 | N 13 G 18 | 20.00 | A Few Clouds | FEW230 | 73.4 | 44.6 | 36% | 29.97 | 1015.0 | |||||||
| 02 | 18:00 | N 10 | 20.00 | A Few Clouds | FEW060 FEW230 | 75.2 | 42.8 | 31% | 77 | 29.98 | 1015.2 | ||||||
| 02 | 17:00 | N 10 | 20.00 | A Few Clouds | FEW060 FEW250 | 77 | 42.8 | 30% | 78 | 29.99 | 1015.7 | ||||||
| 02 | 16:00 | N 9 | 20.00 | A Few Clouds | FEW050 FEW250 | 73.4 | 46.4 | 38% | 30.02 | 1016.5 | |||||||
| 02 | 15:00 | N 7 | 20.00 | A Few Clouds | FEW050 FEW250 | 71.6 | 46.4 | 41% | 30.04 | 1017.2 | |||||||
| 02 | 14:00 | N 8 | 20.00 | A Few Clouds | FEW045 FEW250 | 68 | 48.2 | 49% | 30.06 | 1017.8 | |||||||
| 02 | 13:00 | N 9 | 20.00 | A Few Clouds | FEW036 FEW250 | 66.2 | 48.2 | 52% | 30.07 | 1018.3 | |||||||
| 02 | 12:00 | N 9 | 20.00 | Clear | SKC | 64.4 | 48.2 | 56% | 30.09 | 1018.8 | |||||||
| 02 | 11:00 | N 12 G 17 | 20.00 | Clear | SKC | 60.8 | 48.2 | 63% | 30.09 | 1019.1 | |||||||
| 02 | 10:00 | N 14 G 20 | 20.00 | A Few Clouds | FEW250 | 59 | 48.2 | 68% | 30.09 | 1019.1 | |||||||
| 02 | 09:00 | N 14 G 21 | 20.00 | A Few Clouds | FEW020 FEW110 FEW250 | 55.4 | 48.2 | 77% | 30.09 | 1019.1 | |||||||
| 02 | 08:00 | NW 14 G 20 | 20.00 | A Few Clouds | FEW110 FEW250 | 53.6 | 46.4 | 77% | 30.09 | 1019.0 | |||||||
| 02 | 07:00 | NW 10 G 22 | 20.00 | Partly Cloudy | FEW110 SCT250 | 51.8 | 46.4 | 82% | 30.08 | 1018.8 | |||||||
| 02 | 06:00 | NW 12 | 20.00 | A Few Clouds | FEW110 FEW250 | 51.8 | 46.4 | 82% | 30.08 | 1018.6 | |||||||
| 02 | 05:00 | NW 16 | 20.00 | A Few Clouds | FEW100 FEW250 | 51.8 | 46.4 | 82% | 30.08 | 1018.5 | |||||||
| 02 | 04:00 | NW 13 | 20.00 | A Few Clouds | FEW100 FEW220 | 51.8 | 46.4 | 82% | 30.07 | 1018.2 | |||||||
| 02 | 03:00 | NW 15 | 20.00 | A Few Clouds | FEW100 FEW220 | 53.6 | 46.4 | 77% | 30.06 | 1018.0 | |||||||
| 02 | 02:00 | NW 14 G 24 | 20.00 | A Few Clouds | FEW100 FEW220 | 53.6 | 46.4 | 77% | 30.05 | 1017.6 | |||||||
| 02 | 01:00 | NW 12 G 18 | 20.00 | A Few Clouds | FEW100 FEW220 | 55.4 | 46.4 | 72% | 30.06 | 1017.8 | |||||||
| 02 | 00:00 | NW 14 | 20.00 | A Few Clouds | FEW100 FEW220 | 55.4 | 48.2 | 77% | 30.05 | 1017.6 | |||||||
| 01 | 23:00 | NW 13 | 20.00 | A Few Clouds | FEW100 FEW220 | 59 | 46.4 | 63% | 30.04 | 1017.2 | |||||||
| 01 | 22:00 | NW 7 | 20.00 | Partly Cloudy | FEW100 SCT220 | 57.2 | 48.2 | 72% | 30.03 | 1017.0 | |||||||
| Date | Time (pdt) | Wind (mph) | Vis. (mi.) | Weather | Sky Cond. | Air | Dwpt | Max. | Min. | Relative Humidity | Wind Chill (°F) | Heat Index (°F) | altimeter (in) | sea level (mb) | 1 hr | 3 hr | 6 hr |
| 6 hour | |||||||||||||||||
| Temperature (ºF) | Pressure | Precipitation (in) | |||||||||||||||